| time (UTC) | temp C | wind direction | speed KPH | gust KPH | rain 1hr cm | rain 24hr cm | rain mn cm | humidity % | barometer mb |
| 20260507114144 | 6 | 190 | 1.6 | 9.7 | 0.00 | 0.00 | 0.00 | 78 | 1012.9 |
| 20260507113639 | 5 | 236 | 1.6 | 8.0 | 0.00 | 0.00 | 0.00 | 79 | 1012.9 |
| 20260507113132 | 5 | 143 | 1.6 | 8.0 | 0.00 | 0.00 | 0.00 | 78 | 1012.8 |
| 20260507112625 | 5 | 191 | 1.6 | 11.3 | 0.00 | 0.00 | 0.00 | 79 | 1012.8 |
| 20260507111614 | 5 | 221 | 1.6 | 6.4 | 0.00 | 0.00 | 0.00 | 79 | 1012.9 |
| 20260507110600 | 5 | 204 | 1.6 | 4.8 | 0.00 | 0.00 | 0.00 | 79 | 1012.9 |
| 20260507110055 | 5 | 199 | 0.0 | 4.8 | 0.00 | 0.00 | 0.00 | 79 | 1012.9 |
| 20260507105044 | 5 | 184 | 1.6 | 8.0 | 0.00 | 0.00 | 0.00 | 79 | 1012.8 |
| 20260507104537 | 5 | 186 | 0.0 | 4.8 | 0.00 | 0.00 | 0.00 | 79 | 1012.8 |
| 20260507103526 | 5 | 207 | 0.0 | 3.2 | 0.00 | 0.00 | 0.00 | 79 | 1012.9 |
| 20260507103019 | 5 | 207 | 0.0 | 4.8 | 0.00 | 0.00 | 0.00 | 78 | 1012.9 |
| 20260507102514 | 5 | 207 | 0.0 | 4.8 | 0.00 | 0.00 | 0.00 | 78 | 1012.9 |
| 20260507102008 | 5 | 194 | 0.0 | 1.6 | 0.00 | 0.00 | 0.00 | 78 | 1012.8 |
| 20260507101501 | 5 | 192 | 0.0 | 3.2 | 0.00 | 0.00 | 0.00 | 78 | 1012.9 |
| 20260507100956 | 5 | 208 | 0.0 | 1.6 | 0.00 | 0.00 | 0.00 | 78 | 1013.1 |
| 20260507100449 | 5 | 208 | 0.0 | 3.2 | 0.00 | 0.00 | 0.00 | 78 | 1013.1 |
| 20260507095944 | 5 | 208 | 1.6 | 8.0 | 0.00 | 0.00 | 0.00 | 78 | 1013.1 |
| 20260507095438 | 5 | 208 | 0.0 | 8.0 | 0.00 | 0.00 | 0.00 | 78 | 1013.1 |
| 20260507094932 | 5 | 214 | 0.0 | 4.8 | 0.00 | 0.00 | 0.00 | 78 | 1013.2 |
| 20260507094426 | 5 | 214 | 0.0 | 4.8 | 0.00 | 0.00 | 0.00 | 78 | 1013.3 |
| 20260507093414 | 6 | 211 | 0.0 | 4.8 | 0.00 | 0.00 | 0.00 | 78 | 1013.3 |
| 20260507092907 | 6 | 210 | 0.0 | 4.8 | 0.00 | 0.00 | 0.00 | 78 | 1013.3 |
| 20260507092402 | 6 | 209 | 0.0 | 3.2 | 0.00 | 0.00 | 0.00 | 78 | 1013.4 |
| 20260507091855 | 6 | 217 | 0.0 | 1.6 | 0.00 | 0.00 | 0.00 | 77 | 1013.4 |
| 20260507090855 | 6 | 217 | 0.0 | 0.0 | 0.00 | 0.00 | 0.00 | 77 | 1013.5 |
| 20260507085855 | 6 | 217 | 0.0 | 8.0 | 0.00 | 0.00 | 0.00 | 77 | 1013.6 |
| 20260507085354 | 6 | 217 | 0.0 | 8.0 | 0.00 | 0.00 | 0.00 | 77 | 1013.6 |
| 20260507084855 | 6 | 206 | 0.0 | 6.4 | 0.00 | 0.00 | 0.00 | 77 | 1013.7 |
| 20260507083853 | 6 | 201 | 0.0 | 3.2 | 0.00 | 0.00 | 0.00 | 76 | 1013.8 |
| 20260507083353 | 6 | 201 | 0.0 | 3.2 | 0.00 | 0.00 | 0.00 | 76 | 1013.8 |
| 20260507082853 | 6 | 201 | 0.0 | 1.6 | 0.00 | 0.00 | 0.00 | 76 | 1013.8 |
| 20260507082352 | 6 | 201 | 0.0 | 0.0 | 0.00 | 0.00 | 0.00 | 76 | 1013.9 |
| 20260507081853 | 6 | 201 | 0.0 | 0.0 | 0.00 | 0.00 | 0.00 | 76 | 1013.9 |
| 20260507081352 | 6 | 201 | 0.0 | 0.0 | 0.00 | 0.00 | 0.00 | 75 | 1013.9 |
| 20260507080350 | 6 | 201 | 0.0 | 3.2 | 0.00 | 0.00 | 0.00 | 75 | 1014.1 |
| 20260507075851 | 6 | 201 | 0.0 | 0.0 | 0.00 | 0.00 | 0.00 | 74 | 1014.2 |
| 20260507075350 | 6 | 201 | 0.0 | 1.6 | 0.00 | 0.00 | 0.00 | 74 | 1014.2 |
| 20260507074847 | 6 | 201 | 0.0 | 1.6 | 0.00 | 0.00 | 0.00 | 74 | 1014.3 |
| 20260507074347 | 6 | 201 | 0.0 | 0.0 | 0.00 | 0.00 | 0.00 | 74 | 1014.3 |
| 20260507073848 | 6 | 201 | 0.0 | 0.0 | 0.00 | 0.00 | 0.00 | 73 | 1014.4 |
| 20260507073346 | 6 | 201 | 0.0 | 0.0 | 0.00 | 0.00 | 0.00 | 73 | 1014.4 |
| 20260507072847 | 7 | 201 | 0.0 | 0.0 | 0.00 | 0.00 | 0.00 | 72 | 1014.4 |
| 20260507071847 | 7 | 201 | 0.0 | 3.2 | 0.00 | 0.00 | 0.00 | 71 | 1014.6 |
| 20260507071347 | 7 | 201 | 0.0 | 3.2 | 0.00 | 0.00 | 0.00 | 70 | 1014.6 |
| 20260507070848 | 7 | 201 | 0.0 | 3.2 | 0.00 | 0.00 | 0.00 | 70 | 1014.7 |
| 20260507070348 | 7 | 146 | 0.0 | 0.0 | 0.00 | 0.00 | 0.00 | 70 | 1014.7 |
| 20260507065848 | 7 | 146 | 0.0 | 3.2 | 0.00 | 0.00 | 0.00 | 69 | 1014.8 |
| 20260507064846 | 7 | 214 | 0.0 | 4.8 | 0.00 | 0.00 | 0.00 | 68 | 1015.0 |
| 20260507064347 | 7 | 213 | 0.0 | 4.8 | 0.00 | 0.00 | 0.00 | 67 | 1015.0 |
| 20260507063848 | 8 | 186 | 0.0 | 4.8 | 0.00 | 0.00 | 0.00 | 67 | 1015.0 |
| 20260507063348 | 8 | 209 | 0.0 | 6.4 | 0.00 | 0.00 | 0.00 | 67 | 1015.0 |
| 20260507062340 | 8 | 207 | 1.6 | 8.0 | 0.00 | 0.00 | 0.00 | 65 | 1015.2 |
| 20260507061834 | 8 | 215 | 1.6 | 8.0 | 0.00 | 0.00 | 0.00 | 65 | 1015.2 |
| 20260507061328 | 8 | 222 | 1.6 | 6.4 | 0.00 | 0.00 | 0.00 | 64 | 1015.2 |
| 20260507060823 | 8 | 202 | 1.6 | 6.4 | 0.00 | 0.00 | 0.00 | 63 | 1015.2 |
| 20260507060316 | 7 | 205 | 1.6 | 6.4 | 0.00 | 0.00 | 0.00 | 62 | 1015.2 |
| 20260507055306 | 7 | 197 | 0.0 | 3.2 | 0.00 | 0.00 | 0.00 | 60 | 1015.2 |
| 20260507054759 | 7 | 197 | 0.0 | 1.6 | 0.00 | 0.00 | 0.00 | 59 | 1015.3 |
| 20260507054253 | 7 | 198 | 0.0 | 4.8 | 0.00 | 0.00 | 0.00 | 58 | 1015.2 |
| 20260507053240 | 7 | 210 | 0.0 | 4.8 | 0.00 | 0.00 | 0.00 | 56 | 1015.3 |
| 20260507052734 | 7 | 220 | 0.0 | 1.6 | 0.00 | 0.00 | 0.00 | 55 | 1015.2 |
| 20260507051216 | 8 | 220 | 0.0 | 3.2 | 0.00 | 0.00 | 0.00 | 52 | 1015.3 |
| 20260507050710 | 8 | 220 | 0.0 | 4.8 | 0.00 | 0.00 | 0.00 | 51 | 1015.3 |
| 20260507050205 | 8 | 197 | 0.0 | 4.8 | 0.00 | 0.00 | 0.00 | 51 | 1015.4 |
| 20260507045152 | 9 | 207 | 1.6 | 11.3 | 0.00 | 0.00 | 0.00 | 51 | 1015.4 |
| 20260507044647 | 9 | 220 | 1.6 | 9.7 | 0.00 | 0.00 | 0.00 | 50 | 1015.4 |
| 20260507044139 | 9 | 207 | 1.6 | 8.0 | 0.00 | 0.00 | 0.00 | 48 | 1015.5 |
| 20260507043633 | 9 | 207 | 3.2 | 9.7 | 0.00 | 0.00 | 0.00 | 50 | 1015.5 |
| 20260507043126 | 9 | 224 | 1.6 | 9.7 | 0.00 | 0.00 | 0.00 | 49 | 1015.5 |
| 20260507042621 | 8 | 192 | 0.0 | 3.2 | 0.00 | 0.00 | 0.00 | 48 | 1015.5 |
| 20260507042115 | 8 | 192 | 0.0 | 0.0 | 0.00 | 0.00 | 0.00 | 49 | 1015.6 |
| 20260507041609 | 8 | 192 | 0.0 | 0.0 | 0.00 | 0.00 | 0.00 | 48 | 1015.6 |
| 20260507041104 | 8 | 192 | 0.0 | 0.0 | 0.00 | 0.00 | 0.00 | 47 | 1015.5 |
| 20260507040050 | 9 | 192 | 0.0 | 0.0 | 0.00 | 0.00 | 0.00 | 47 | 1015.6 |
| 20260507035545 | 9 | 192 | 0.0 | 1.6 | 0.00 | 0.00 | 0.00 | 46 | 1015.6 |
| 20260507035039 | 9 | 192 | 0.0 | 1.6 | 0.00 | 0.00 | 0.00 | 46 | 1015.8 |
| 20260507034534 | 9 | 192 | 0.0 | 0.0 | 0.00 | 0.00 | 0.00 | 45 | 1015.8 |
| 20260507033521 | 9 | 192 | 0.0 | 0.0 | 0.00 | 0.00 | 0.00 | 47 | 1015.8 |
| 20260507033019 | 9 | 192 | 0.0 | 0.0 | 0.00 | 0.00 | 0.00 | 48 | 1015.9 |
| 20260507032518 | 9 | 192 | 0.0 | 0.0 | 0.00 | 0.00 | 0.00 | 48 | 1015.9 |
| 20260507032014 | 9 | 192 | 0.0 | 0.0 | 0.00 | 0.00 | 0.00 | 48 | 1015.9 |
| 20260507031516 | 9 | 192 | 0.0 | 0.0 | 0.00 | 0.00 | 0.00 | 50 | 1015.8 |
| 20260507031014 | 9 | 192 | 0.0 | 0.0 | 0.00 | 0.00 | 0.00 | 49 | 1015.8 |
| 20260507030514 | 10 | 192 | 0.0 | 0.0 | 0.00 | 0.00 | 0.00 | 47 | 1015.8 |
| 20260507030012 | 10 | 192 | 0.0 | 0.0 | 0.00 | 0.00 | 0.00 | 45 | 1015.9 |
| 20260507025510 | 10 | 192 | 0.0 | 0.0 | 0.00 | 0.00 | 0.00 | 44 | 1015.8 |
| 20260507025012 | 11 | 192 | 0.0 | 3.2 | 0.00 | 0.00 | 0.00 | 41 | 1015.8 |
| 20260507024509 | 11 | 192 | 0.0 | 3.2 | 0.00 | 0.00 | 0.00 | 39 | 1015.8 |
| 20260507024010 | 11 | 210 | 0.0 | 1.6 | 0.00 | 0.00 | 0.00 | 40 | 1015.6 |
| 20260507023510 | 11 | 210 | 0.0 | 3.2 | 0.00 | 0.00 | 0.00 | 39 | 1015.6 |
| 20260507023007 | 11 | 210 | 0.0 | 3.2 | 0.00 | 0.00 | 0.00 | 39 | 1015.6 |
| 20260507022507 | 11 | 259 | 0.0 | 0.0 | 0.00 | 0.00 | 0.00 | 38 | 1015.6 |
| 20260507022007 | 11 | 259 | 0.0 | 0.0 | 0.00 | 0.00 | 0.00 | 39 | 1015.5 |
| 20260507021504 | 11 | 259 | 0.0 | 0.0 | 0.00 | 0.00 | 0.00 | 39 | 1015.5 |
| 20260507020004 | 12 | 259 | 0.0 | 0.0 | 0.00 | 0.00 | 0.00 | 35 | 1015.4 |
| 20260507015501 | 12 | 259 | 0.0 | 0.0 | 0.00 | 0.00 | 0.00 | 35 | 1015.4 |
| 20260507014502 | 13 | 259 | 0.0 | 0.0 | 0.00 | 0.00 | 0.00 | 34 | 1015.3 |
| 20260507014002 | 13 | 259 | 0.0 | 0.0 | 0.00 | 0.00 | 0.00 | 33 | 1015.3 |
| 20260507013502 | 13 | 259 | 0.0 | 0.0 | 0.00 | 0.00 | 0.00 | 33 | 1015.3 |
| 20260507013001 | 14 | 259 | 0.0 | 3.2 | 0.00 | 0.00 | 0.00 | 31 | 1015.3 |
| 20260507012501 | 14 | 259 | 0.0 | 3.2 | 0.00 | 0.00 | 0.00 | 31 | 1015.2 |
| 20260507012001 | 14 | 259 | 1.6 | 3.2 | 0.00 | 0.00 | 0.00 | 30 | 1015.2 |
| 20260507011502 | 15 | 238 | 1.6 | 4.8 | 0.00 | 0.00 | 0.00 | 30 | 1015.2 |
| 20260507011001 | 15 | 260 | 1.6 | 4.8 | 0.00 | 0.00 | 0.00 | 30 | 1015.3 |
| 20260507004501 | 15 | 202 | 3.2 | 12.9 | 0.00 | 0.00 | 0.00 | 27 | 1015.3 |
| 20260507003501 | 16 | 263 | 4.8 | 12.9 | 0.00 | 0.00 | 0.00 | 27 | 1015.4 |
| 20260507003002 | 16 | 271 | 4.8 | 12.9 | 0.00 | 0.00 | 0.00 | 26 | 1015.4 |
| 20260507002501 | 16 | 300 | 3.2 | 12.9 | 0.00 | 0.00 | 0.00 | 26 | 1015.5 |
| 20260507001958 | 16 | 287 | 3.2 | 11.3 | 0.00 | 0.00 | 0.00 | 27 | 1015.6 |
| 20260507001459 | 16 | 292 | 4.8 | 14.5 | 0.00 | 0.00 | 0.00 | 27 | 1015.5 |
| 20260507001000 | 16 | 303 | 4.8 | 14.5 | 0.00 | 0.00 | 0.00 | 27 | 1015.5 |
| 20260507000457 | 16 | 19 | 4.8 | 14.5 | 0.00 | 0.00 | 0.00 | 27 | 1015.5 |
| 20260506235956 | 16 | 275 | 4.8 | 14.5 | 0.00 | 0.00 | 0.00 | 27 | 1015.6 |
| 20260506235457 | 16 | 235 | 4.8 | 12.9 | 0.00 | 0.00 | 0.00 | 27 | 1015.5 |
| 20260506234955 | 15 | 263 | 4.8 | 11.3 | 0.00 | 0.00 | 0.00 | 28 | 1015.6 |
| 20260506234452 | 15 | 277 | 4.8 | 12.9 | 0.00 | 0.00 | 0.00 | 28 | 1015.8 |
| 20260506233953 | 15 | 274 | 4.8 | 14.5 | 0.00 | 0.00 | 0.00 | 28 | 1015.8 |
| 20260506233453 | 16 | 252 | 4.8 | 14.5 | 0.00 | 0.00 | 0.00 | 27 | 1015.8 |
| 20260506232952 | 16 | 258 | 6.4 | 16.1 | 0.00 | 0.00 | 0.00 | 27 | 1015.9 |
| 20260506232452 | 16 | 209 | 6.4 | 19.3 | 0.00 | 0.00 | 0.00 | 27 | 1015.9 |
| 20260506231956 | 16 | 254 | 6.4 | 16.1 | 0.00 | 0.00 | 0.00 | 26 | 1015.9 |
| 20260506231450 | 16 | 267 | 6.4 | 16.1 | 0.00 | 0.00 | 0.00 | 27 | 1015.9 |
| 20260506230943 | 16 | 298 | 8.0 | 20.9 | 0.00 | 0.00 | 0.00 | 27 | 1016.0 |
| 20260506230437 | 16 | 244 | 9.7 | 20.9 | 0.00 | 0.00 | 0.00 | 26 | 1016.0 |
| 20260506225931 | 16 | 276 | 8.0 | 19.3 | 0.00 | 0.00 | 0.00 | 26 | 1016.0 |
| 20260506225425 | 16 | 252 | 8.0 | 29.0 | 0.00 | 0.00 | 0.00 | 27 | 1016.0 |
| 20260506224919 | 16 | 285 | 9.7 | 29.0 | 0.00 | 0.00 | 0.00 | 28 | 1016.1 |
| 20260506223906 | 15 | 279 | 4.8 | 12.9 | 0.00 | 0.00 | 0.00 | 28 | 1016.0 |
| 20260506223402 | 16 | 165 | 4.8 | 17.7 | 0.00 | 0.00 | 0.00 | 27 | 1016.1 |
| 20260506222855 | 16 | 279 | 6.4 | 17.7 | 0.00 | 0.00 | 0.00 | 28 | 1016.2 |
| 20260506222352 | 16 | 226 | 9.7 | 19.3 | 0.00 | 0.00 | 0.00 | 27 | 1016.2 |
| 20260506221843 | 16 | 225 | 8.0 | 19.3 | 0.00 | 0.00 | 0.00 | 27 | 1016.2 |
| 20260506221337 | 16 | 257 | 6.4 | 17.7 | 0.00 | 0.00 | 0.00 | 29 | 1016.2 |
| 20260506220832 | 16 | 268 | 6.4 | 19.3 | 0.00 | 0.00 | 0.00 | 27 | 1016.3 |
| 20260506220326 | 16 | 261 | 9.7 | 30.6 | 0.00 | 0.00 | 0.00 | 27 | 1016.4 |
| 20260506215313 | 15 | 288 | 3.2 | 12.9 | 0.00 | 0.00 | 0.00 | 28 | 1016.5 |
| 20260506214807 | 15 | 279 | 3.2 | 11.3 | 0.00 | 0.00 | 0.00 | 28 | 1016.5 |
| 20260506214300 | 15 | 279 | 3.2 | 12.9 | 0.00 | 0.00 | 0.00 | 29 | 1016.6 |
| 20260506213248 | 15 | 312 | 6.4 | 17.7 | 0.00 | 0.00 | 0.00 | 30 | 1016.6 |
| 20260506212744 | 15 | 296 | 6.4 | 17.7 | 0.00 | 0.00 | 0.00 | 28 | 1016.7 |
| 20260506212238 | 15 | 240 | 4.8 | 17.7 | 0.00 | 0.00 | 0.00 | 29 | 1016.8 |
| 20260506211731 | 15 | 315 | 6.4 | 14.5 | 0.00 | 0.00 | 0.00 | 28 | 1016.8 |
| 20260506211224 | 15 | 351 | 8.0 | 29.0 | 0.00 | 0.00 | 0.00 | 28 | 1016.8 |
| 20260506210718 | 15 | 38 | 6.4 | 29.0 | 0.00 | 0.00 | 0.00 | 29 | 1016.9 |
| 20260506210214 | 15 | 290 | 4.8 | 14.5 | 0.00 | 0.00 | 0.00 | 28 | 1016.9 |
| 20260506205707 | 15 | 287 | 6.4 | 20.9 | 0.00 | 0.00 | 0.00 | 28 | 1017.1 |
| 20260506205200 | 15 | 294 | 6.4 | 20.9 | 0.00 | 0.00 | 0.00 | 28 | 1017.2 |
| 20260506204149 | 15 | 281 | 6.4 | 19.3 | 0.00 | 0.00 | 0.00 | 27 | 1017.4 |
| 20260506203642 | 15 | 280 | 6.4 | 19.3 | 0.00 | 0.00 | 0.00 | 28 | 1017.3 |
| 20260506203136 | 15 | 28 | 4.8 | 14.5 | 0.00 | 0.00 | 0.00 | 28 | 1017.3 |
| 20260506202632 | 15 | 260 | 6.4 | 17.7 | 0.00 | 0.00 | 0.00 | 30 | 1017.4 |
| 20260506202125 | 15 | 272 | 8.0 | 17.7 | 0.00 | 0.00 | 0.00 | 28 | 1017.5 |
| 20260506201621 | 15 | 288 | 6.4 | 17.7 | 0.00 | 0.00 | 0.00 | 28 | 1017.6 |
| 20260506201114 | 15 | 301 | 4.8 | 17.7 | 0.00 | 0.00 | 0.00 | 29 | 1017.6 |
| 20260506195556 | 15 | 248 | 8.0 | 25.7 | 0.00 | 0.00 | 0.00 | 27 | 1017.8 |
| 20260506195049 | 15 | 9 | 6.4 | 19.3 | 0.00 | 0.00 | 0.00 | 27 | 1017.8 |
| 20260506194543 | 15 | 242 | 4.8 | 20.9 | 0.00 | 0.00 | 0.00 | 28 | 1017.7 |
| 20260506193531 | 15 | 35 | 6.4 | 22.5 | 0.00 | 0.00 | 0.00 | 30 | 1017.7 |
| 20260506193026 | 15 | 257 | 6.4 | 22.5 | 0.00 | 0.00 | 0.00 | 29 | 1017.9 |
| 20260506192518 | 15 | 265 | 8.0 | 20.9 | 0.00 | 0.00 | 0.00 | 28 | 1017.9 |
| 20260506191001 | 15 | 302 | 9.7 | 27.4 | 0.00 | 0.00 | 0.00 | 30 | 1017.9 |
| 20260506190456 | 14 | 275 | 11.3 | 27.4 | 0.00 | 0.00 | 0.00 | 28 | 1017.8 |
| 20260506185949 | 14 | 243 | 8.0 | 20.9 | 0.00 | 0.00 | 0.00 | 28 | 1017.9 |
| 20260506185444 | 15 | 275 | 8.0 | 22.5 | 0.00 | 0.00 | 0.00 | 28 | 1017.9 |
| 20260506184936 | 15 | 281 | 8.0 | 24.1 | 0.00 | 0.00 | 0.00 | 28 | 1018.2 |
| 20260506184432 | 15 | 26 | 6.4 | 24.1 | 0.00 | 0.00 | 0.00 | 28 | 1018.1 |
| 20260506183926 | 15 | 290 | 8.0 | 20.9 | 0.00 | 0.00 | 0.00 | 29 | 1018.1 |
| 20260506183419 | 15 | 291 | 9.7 | 33.8 | 0.00 | 0.00 | 0.00 | 29 | 1018.1 |
| 20260506182914 | 15 | 320 | 9.7 | 33.8 | 0.00 | 0.00 | 0.00 | 30 | 1018.0 |
| 20260506182408 | 14 | 288 | 9.7 | 27.4 | 0.00 | 0.00 | 0.00 | 29 | 1018.1 |
| 20260506181902 | 14 | 257 | 6.4 | 27.4 | 0.00 | 0.00 | 0.00 | 28 | 1018.2 |
| 20260506181356 | 14 | 304 | 6.4 | 24.1 | 0.00 | 0.00 | 0.00 | 28 | 1018.4 |
| 20260506180850 | 14 | 311 | 4.8 | 24.1 | 0.00 | 0.00 | 0.00 | 30 | 1018.5 |
| 20260506180342 | 14 | 100 | 4.8 | 16.1 | 0.00 | 0.00 | 0.00 | 29 | 1018.4 |
| 20260506175837 | 14 | 27 | 6.4 | 17.7 | 0.00 | 0.00 | 0.00 | 30 | 1018.6 |
| 20260506174827 | 14 | 248 | 6.4 | 24.1 | 0.00 | 0.00 | 0.00 | 30 | 1018.7 |
| 20260506174325 | 14 | 264 | 6.4 | 17.7 | 0.00 | 0.00 | 0.00 | 29 | 1018.8 |
| 20260506173826 | 13 | 282 | 8.0 | 20.9 | 0.00 | 0.00 | 0.00 | 32 | 1018.8 |
| 20260506173327 | 13 | 285 | 6.4 | 20.9 | 0.00 | 0.00 | 0.00 | 30 | 1018.9 |
| 20260506172823 | 13 | 275 | 4.8 | 20.9 | 0.00 | 0.00 | 0.00 | 31 | 1018.9 |
| 20260506172324 | 13 | 252 | 8.0 | 20.9 | 0.00 | 0.00 | 0.00 | 30 | 1019.0 |
| 20260506171322 | 13 | 332 | 6.4 | 20.9 | 0.00 | 0.00 | 0.00 | 31 | 1019.0 |
| 20260506170822 | 13 | 288 | 4.8 | 20.9 | 0.00 | 0.00 | 0.00 | 31 | 1019.1 |
| 20260506165821 | 13 | 290 | 4.8 | 14.5 | 0.00 | 0.00 | 0.00 | 33 | 1019.3 |
| 20260506165323 | 12 | 100 | 4.8 | 14.5 | 0.00 | 0.00 | 0.00 | 31 | 1019.3 |
| 20260506164822 | 12 | 278 | 6.4 | 19.3 | 0.00 | 0.00 | 0.00 | 32 | 1019.3 |
| 20260506163822 | 12 | 34 | 4.8 | 14.5 | 0.00 | 0.00 | 0.00 | 33 | 1019.4 |
| 20260506163321 | 12 | 306 | 4.8 | 14.5 | 0.00 | 0.00 | 0.00 | 35 | 1019.3 |
| 20260506162822 | 12 | 306 | 6.4 | 16.1 | 0.00 | 0.00 | 0.00 | 34 | 1019.3 |
| 20260506162323 | 12 | 266 | 6.4 | 17.7 | 0.00 | 0.00 | 0.00 | 33 | 1019.3 |
| 20260506161821 | 12 | 281 | 6.4 | 17.7 | 0.00 | 0.00 | 0.00 | 34 | 1019.3 |
| 20260506161322 | 12 | 44 | 6.4 | 19.3 | 0.00 | 0.00 | 0.00 | 34 | 1019.3 |
| 20260506160321 | 12 | 246 | 6.4 | 16.1 | 0.00 | 0.00 | 0.00 | 35 | 1019.4 |
| 20260506155822 | 11 | 36 | 6.4 | 16.1 | 0.00 | 0.00 | 0.00 | 33 | 1019.4 |
| 20260506154823 | 11 | 292 | 1.6 | 17.7 | 0.00 | 0.00 | 0.00 | 36 | 1019.4 |
| 20260506154322 | 11 | 314 | 3.2 | 16.1 | 0.00 | 0.00 | 0.00 | 35 | 1019.4 |
| 20260506153822 | 11 | 251 | 4.8 | 17.7 | 0.00 | 0.00 | 0.00 | 37 | 1019.3 |
| 20260506153322 | 11 | 276 | 4.8 | 17.7 | 0.00 | 0.00 | 0.00 | 36 | 1019.3 |
| 20260506152822 | 11 | 281 | 3.2 | 11.3 | 0.00 | 0.00 | 0.00 | 38 | 1019.4 |
| 20260506152320 | 11 | 263 | 3.2 | 9.7 | 0.00 | 0.00 | 0.00 | 38 | 1019.3 |
| 20260506151819 | 11 | 288 | 3.2 | 9.7 | 0.00 | 0.00 | 0.00 | 37 | 1019.3 |
| 20260506151315 | 11 | 14 | 1.6 | 6.4 | 0.00 | 0.00 | 0.00 | 38 | 1019.4 |
| 20260506150814 | 10 | 28 | 1.6 | 6.4 | 0.00 | 0.00 | 0.00 | 39 | 1019.3 |
| 20260506150313 | 10 | 281 | 1.6 | 4.8 | 0.00 | 0.00 | 0.00 | 40 | 1019.3 |
| 20260506145316 | 10 | 53 | 1.6 | 6.4 | 0.00 | 0.00 | 0.00 | 41 | 1019.2 |
| 20260506144811 | 10 | 284 | 1.6 | 6.4 | 0.00 | 0.00 | 0.00 | 39 | 1019.2 |
| 20260506144304 | 10 | 55 | 0.0 | 3.2 | 0.00 | 0.00 | 0.00 | 41 | 1019.2 |
| 20260506143252 | 10 | 304 | 0.0 | 3.2 | 0.00 | 0.00 | 0.00 | 43 | 1019.3 |
| 20260506142746 | 9 | 304 | 0.0 | 3.2 | 0.00 | 0.00 | 0.00 | 42 | 1019.3 |
| 20260506141735 | 8 | 263 | 1.6 | 3.2 | 0.00 | 0.00 | 0.00 | 45 | 1019.2 |
| 20260506141228 | 8 | 259 | 1.6 | 4.8 | 0.00 | 0.00 | 0.00 | 44 | 1019.2 |
| 20260506140722 | 8 | 287 | 1.6 | 4.8 | 0.00 | 0.00 | 0.00 | 45 | 1019.2 |
| 20260506140216 | 8 | 319 | 0.0 | 3.2 | 0.00 | 0.00 | 0.00 | 47 | 1019.2 |
| 20260506135709 | 8 | 319 | 0.0 | 4.8 | 0.00 | 0.00 | 0.00 | 46 | 1019.1 |
| 20260506135205 | 8 | 320 | 0.0 | 4.8 | 0.00 | 0.00 | 0.00 | 48 | 1019.1 |
| 20260506134658 | 8 | 334 | 0.0 | 3.2 | 0.00 | 0.00 | 0.00 | 49 | 1019.1 |
| 20260506134153 | 7 | 340 | 0.0 | 3.2 | 0.00 | 0.00 | 0.00 | 50 | 1019.0 |
| 20260506133647 | 7 | 276 | 0.0 | 4.8 | 0.00 | 0.00 | 0.00 | 50 | 1019.0 |
| 20260506133139 | 7 | 0 | 0.0 | 4.8 | 0.00 | 0.00 | 0.00 | 50 | 1018.9 |
| 20260506132633 | 7 | 309 | 0.0 | 3.2 | 0.00 | 0.00 | 0.00 | 52 | 1018.9 |
| 20260506132129 | 7 | 346 | 1.6 | 4.8 | 0.00 | 0.00 | 0.00 | 52 | 1018.7 |
| 20260506131622 | 7 | 275 | 1.6 | 6.4 | 0.00 | 0.00 | 0.00 | 53 | 1018.7 |
| 20260506131115 | 7 | 326 | 3.2 | 6.4 | 0.00 | 0.00 | 0.00 | 53 | 1018.7 |
| 20260506130103 | 6 | 292 | 1.6 | 4.8 | 0.00 | 0.00 | 0.00 | 54 | 1018.6 |
| 20260506125559 | 6 | 22 | 1.6 | 6.4 | 0.00 | 0.00 | 0.00 | 55 | 1018.5 |
| 20260506125052 | 6 | 304 | 1.6 | 6.4 | 0.00 | 0.00 | 0.00 | 56 | 1018.4 |
| 20260506124548 | 6 | 249 | 0.0 | 3.2 | 0.00 | 0.00 | 0.00 | 56 | 1018.4 |
| 20260506124040 | 6 | 286 | 1.6 | 6.4 | 0.00 | 0.00 | 0.00 | 57 | 1018.2 |
| 20260506123534 | 6 | 12 | 1.6 | 6.4 | 0.00 | 0.00 | 0.00 | 59 | 1018.1 |
| 20260506123029 | 5 | 28 | 0.0 | 3.2 | 0.00 | 0.00 | 0.00 | 61 | 1018.1 |
| 20260506122017 | 5 | 28 | 0.0 | 1.6 | 0.00 | 0.00 | 0.00 | 64 | 1017.8 |
| 20260506121510 | 5 | 28 | 0.0 | 0.0 | 0.00 | 0.00 | 0.00 | 65 | 1017.8 |
| 20260506120458 | 5 | 28 | 0.0 | 1.6 | 0.00 | 0.00 | 0.00 | 66 | 1017.6 |
| 20260506115952 | 5 | 28 | 0.0 | 1.6 | 0.00 | 0.00 | 0.00 | 66 | 1017.5 |
| 20260506115447 | 5 | 28 | 0.0 | 0.0 | 0.00 | 0.00 | 0.00 | 68 | 1017.6 |
| 20260506114941 | 4 | 28 | 0.0 | 0.0 | 0.00 | 0.00 | 0.00 | 69 | 1017.5 |
| 20260506114433 | 4 | 28 | 0.0 | 0.0 | 0.00 | 0.00 | 0.00 | 68 | 1017.4 |